This demonstration page uses our WeatherBlox Daily Observations layout. Learn more.

Left ArrowRight Arrow

34.74481, -87.66753

Hourly Observations for July 24, 2019

Temp ( °F °C ) Dew Point ( °F °C ) Humidity (%) Winds ( mph kmh ) Pressure ( in mb ) Visibility ( mi km ) Precip ( " mm )
12:53 am 00:53 Clear 70 21.1 60 15.6 71 71 NNE 8 13 30.04 1017 10 16 0.00 0.00
3:53 am 03:53 Clear 67 19.4 60 15.6 79 79 N 3 6 30.04 1017 10 16 0.00 0.00
4:53 am 04:53 Clear 66 18.9 60 15.6 81 81 N 3 6 30.05 1018 10 16 0.00 0.00
5:53 am 05:53 Clear 66 18.9 60 15.6 81 81 NNE 5 7 30.06 1018 10 16 0.00 0.00
6:53 am 06:53 Sunny 68 20 60 15.6 76 76 N 5 7 30.07 1018 10 16 0.00 0.00
7:53 am 07:53 Sunny 72 22.2 61 16.1 68 68 NNE 5 7 30.09 1019 10 16 0.00 0.00
8:53 am 08:53 Sunny 76 24.4 62 16.7 62 62 NNE 5 7 30.11 1020 10 16 0.00 0.00
9:53 am 09:53 Sunny 78 25.6 60 15.6 54 54 ENE 5 7 30.10 1019 10 16 0.00 0.00
10:53 am 10:53 Sunny 80 26.7 59 15 49 49 NE 8 13 30.10 1019 10 16 0.00 0.00
11:53 am 11:53 Sunny 82 27.8 59 15 46 46 ENE 12 19 30.09 1019 10 16 0.00 0.00
1:53 pm 13:53 Mostly Sunny 83 28.3 60 15.6 46 46 E 8 13 30.06 1018 10 16 0.00 0.00
3:53 pm 15:53 Mostly Sunny 83 28.3 60 15.6 46 46 N 7 11 30.04 1017 10 16 0.00 0.00
4:53 pm 16:53 Sunny 85 29.4 60 15.6 43 43 N 6 9 30.02 1017 10 16 0.00 0.00
5:53 pm 17:53 Sunny 83 28.3 61 16.1 48 48 N 8 13 30.03 1017 10 16 0.00 0.00
6:53 pm 18:53 Sunny 81 27.2 59 15 47 47 VRB 6 9 30.04 1017 10 16 0.00 0.00
7:53 pm 19:53 Sunny 77 25 57 13.9 50 50 N 5 7 30.06 1018 10 16 0.00 0.00
8:53 pm 20:53 Clear 75 23.9 55 12.8 50 50 N 5 7 30.07 1018 10 16 0.00 0.00
9:53 pm 21:53 Clear 73 22.8 55 12.8 53 53 VRB 5 7 30.08 1019 10 16 0.00 0.00
10:53 pm 22:53 Clear 71 21.7 56 13.3 59 59 NNE 6 9 30.08 1019 10 16 0.00 0.00
11:53 pm 23:53 Clear 72 22.2 56 13.3 57 57 NNE 5 7 30.08 1019 10 16 0.00 0.00

Powered by AerisWeather